EUTELSAT 5 WEST B

Last updated on Tue Sep 22 2026 00:03:15 GMT+0000 (Coordinated Universal Time)

1 44624U 19067A 26264.34555003 -.00000046 00000+0 00000+0 0 9997 2 44624 0.0696 335.9723 0003205 200.8794 302.7885 1.00272843 25394
UTC large
Height (km)
Speed (km/s)
/
Latitude / Longitude
Inclination (degrees)
Orbital Period (minutes)
Azimuth
Elevation
Range (km)
Doppler Factor

Next 0 passes for location: London (51.5072 / 0.1276)

No passes found over London.
EUTELSAT 5 WEST B